Location: Unspecified
(0.0000°N, 0.0000°E)
Time: 20:46:16
(UTC+00:00)

AO-7 - Visible Passes

Search period start: 03 October 2023 00:00
Search period end: 13 October 2023 00:00
Orbit: 1440 x 1458 km, 102.0° (Epoch: 02 October)

Date Brightness Start Highest point End Pass type
(mag) Time Alt. Az. Time Alt. Az. Time Alt. Az.
03 Oct ? 04:14:56 10° NNE 04:23:01 59° ESE 04:31:07 10° S visible
04 Oct ? 03:18:05 10° ENE 03:23:23 19° ESE 03:28:40 10° SSE visible
04 Oct ? 05:07:39 10° N 05:15:41 56° WNW 05:23:45 10° SSW visible
05 Oct ? 04:08:01 10° NNE 04:15:59 52° ESE 04:23:56 10° S visible
05 Oct ? 18:32:34 10° WSW 18:34:32 11° WSW 18:36:30 10° W visible
06 Oct ? 03:11:50 10° ENE 03:16:22 16° ESE 03:20:52 10° SE visible
06 Oct ? 05:00:29 10° N 05:08:39 64° WNW 05:16:49 10° SSW visible
07 Oct ? 04:01:09 10° NE 04:08:56 45° ESE 04:16:42 10° S visible
07 Oct ? 18:23:55 10° SW 18:27:31 13° WSW 18:31:08 10° W visible
08 Oct ? 03:05:52 10° E 03:09:21 13° ESE 03:12:49 10° SE visible
08 Oct ? 04:53:21 10° N 05:01:36 73° WNW 05:09:51 10° SSW visible
09 Oct ? 03:54:20 10° NE 04:01:53 40° ESE 04:09:25 10° S visible
09 Oct ? 18:15:53 10° SW 18:20:30 16° WSW 18:25:08 10° WNW visible
10 Oct ? 03:00:36 10° E 03:02:20 11° ESE 03:04:03 10° ESE visible
10 Oct ? 04:46:16 10° NNE 04:54:33 82° WNW 05:02:51 10° SSW visible
11 Oct ? 03:47:35 10° NE 03:54:51 35° ESE 04:02:06 10° SSE visible
11 Oct ? 18:08:07 10° SSW 18:13:29 19° WSW 18:18:53 10° WNW visible
12 Oct ? 04:39:12 10° NNE 04:47:29 88° ESE 04:55:49 10° SSW visible
